Location: Alpine
(43.1636°N, 111.0180°W)
Time: 04:26:00
(UTC+00:00)

Tiros 1 despin weight - Pass Details

Date: 01 June 2022
Orbit: 591 x 639 km, 48.2° (Epoch: 30 June)

Event Time Altitude Azimuth Distance (km) Brightness Sun altitude
Rises 04:36:47 0° 294° (WNW) 2,856 ? -14.6°
Reaches altitude 10° 04:39:06 10° 292° (WNW) 1,943 ? -14.8°
Maximum altitude 04:43:32 71° 210° (SSW) 630 ? -15.3°
Enters shadow 04:45:47 28° 131° (SE) 1,124 ? -15.6°
Drops below altitude 10° 04:47:54 10° 126° (SE) 1,916 - -15.8°
Sets 04:50:10 0° 124° (SE) 2,812 - -16.0°
